Weather reports worldwide

Advertisment
Stonyhurst, United Kingdom (99060): temperature & dewpoint: 23.07.2017 12:00:00 - 29.07.2017 12:00:00 (BST)Stonyhurst, United Kingdom (99060): wind speed: 23.07.2017 12:00:00 - 29.07.2017 12:00:00 (BST)Stonyhurst, United Kingdom (99060): wind direction: 23.07.2017 12:00:00 - 29.07.2017 12:00:00 (BST)Stonyhurst, United Kingdom (99060): visibility: 23.07.2017 12:00:00 - 29.07.2017 12:00:00 (BST)Stonyhurst, United Kingdom (99060): precipitation: 23.07.2017 12:00:00 - 29.07.2017 12:00:00 (BST)
Date & Time tt [°C] td [°C] ff [km/h] ff [kn] dd vv [km] rr [mm]
29.07.2017 12:00:00 15,8 11,0 - - - - 0,0
29.07.2017 11:00:00 15,9 11,2 - - - - 0,0
29.07.2017 10:00:00 14,7 11,4 58 31 N 0,9 0,0
29.07.2017 09:00:00 13,6 11,6 - - - - 0,0
29.07.2017 08:00:00 13,2 11,6 - - - - 0,0
29.07.2017 07:00:00 12,7 11,0 - - - - 0,0
29.07.2017 06:00:00 12,4 11,3 - - - - 0,0
29.07.2017 05:00:00 12,4 11,2 - - - - 0,0
29.07.2017 04:00:00 12,5 11,1 - - - - 0,0
29.07.2017 03:00:00 12,6 11,3 - - - - 0,0
29.07.2017 02:00:00 13,3 12,6 - - - - 0,0
29.07.2017 01:00:00 14,1 13,7 - - - - 0,0
29.07.2017 00:00:00 14,1 13,5 - - - - 0,0
28.07.2017 23:00:00 14,4 13,6 - - - 10 0,2
28.07.2017 22:00:00 15,0 14,5 - - - - 0,2
28.07.2017 21:00:00 14,7 14,2 - - - - 1,4
28.07.2017 20:00:00 15,0 14,4 - - - - 0,4
28.07.2017 19:00:00 14,6 14,1 - - - - 2,8
28.07.2017 18:00:00 14,8 14,3 - - - - 5,2
28.07.2017 17:00:00 15,0 13,9 - - - - 0,2
28.07.2017 16:00:00 16,1 11,4 - - - - 0,0
28.07.2017 15:00:00 17,4 11,1 - - - - 0,0
28.07.2017 14:00:00 17,5 10,4 - - - - 0,0
28.07.2017 13:00:00 16,8 11,2 - - - - 0,0
28.07.2017 12:00:00 16,9 9,7 - - - - 0,0
28.07.2017 11:00:00 - - - - - - 0,0
28.07.2017 10:00:00 13,3 11,4 52 28 N 1,1 0,0
28.07.2017 09:00:00 12,1 11,2 - - - - 0,6
28.07.2017 08:00:00 11,9 11,2 - - - - 0,8
28.07.2017 07:00:00 11,7 11,0 - - - - 1,8
28.07.2017 06:00:00 11,7 11,0 - - - - 1,6
28.07.2017 05:00:00 12,1 11,1 - - - - 0,0
28.07.2017 04:00:00 12,1 11,3 - - - - 0,4
28.07.2017 03:00:00 12,0 11,3 - - - - 0,2
28.07.2017 02:00:00 - - - - - - 3,4
28.07.2017 01:00:00 12,7 11,9 - - - - 0,0
28.07.2017 00:00:00 12,8 12,1 - - - - 0,4
27.07.2017 23:00:00 12,9 11,8 - - - - 3,2
27.07.2017 22:00:00 13,6 11,5 - - - - 0,0
27.07.2017 21:00:00 13,6 10,9 - - - - 0,0
27.07.2017 20:00:00 15,6 10,6 - - - - 0,0
27.07.2017 19:00:00 16,1 10,9 - - - - 0,0
27.07.2017 18:00:00 16,9 10,6 - - - - 0,0
27.07.2017 17:00:00 17,4 11,2 - - - - 0,0
27.07.2017 16:00:00 16,6 9,5 - - - - 0,0
27.07.2017 15:00:00 16,7 10,6 - - - - 0,0
27.07.2017 14:00:00 15,3 11,5 - - - - 0,4
27.07.2017 13:00:00 12,4 11,4 - - - - 7,4
27.07.2017 12:00:00 13,0 10,7 - - - - 0,0
27.07.2017 11:00:00 12,9 10,7 - - - - 0,2
27.07.2017 10:00:00 12,8 10,3 32 18 N 0,05 0,0
27.07.2017 09:00:00 13,3 11,1 - - - - 0,6
27.07.2017 08:00:00 11,0 10,0 - - - - 1,8
27.07.2017 07:00:00 11,6 9,7 - - - - 0,0
27.07.2017 06:00:00 11,0 9,8 - - - - 0,0
27.07.2017 05:00:00 11,3 9,5 - - - - 0,0
27.07.2017 04:00:00 11,2 9,8 - - - - 0,0
27.07.2017 03:00:00 11,4 9,7 - - - - 0,2
27.07.2017 02:00:00 11,5 10,2 - - - - 0,0
27.07.2017 01:00:00 11,1 9,9 - - - - 0,0
27.07.2017 00:00:00 10,9 10,6 - - - - 0,0
26.07.2017 23:00:00 10,7 10,0 - - - - 2,6
26.07.2017 22:00:00 15,7 10,2 - - - - 0,0
26.07.2017 21:00:00 15,7 11,3 - - - - 0,0
26.07.2017 20:00:00 15,8 9,8 - - - - 0,0
26.07.2017 19:00:00 17,3 10,2 - - - - 0,0
26.07.2017 18:00:00 16,7 11,4 - - - - 0,0
26.07.2017 17:00:00 16,8 12,3 - - - - 0,0
26.07.2017 16:00:00 16,4 13,5 - - - - 0,0
26.07.2017 15:00:00 16,5 14,7 - - - - 0,0
26.07.2017 14:00:00 17,6 16,9 - - - - 2,0
26.07.2017 13:00:00 17,2 16,2 - - - - 0,2
26.07.2017 12:00:00 16,4 15,7 - - - - 0,6
26.07.2017 11:00:00 15,7 15,0 - - - - 2,4
26.07.2017 10:00:00 15,3 14,7 70 38 N 1,5 5,0
26.07.2017 09:00:00 14,6 14,0 - - - - 4,6
26.07.2017 08:00:00 15,0 13,8 - - - - 0,8
26.07.2017 07:00:00 14,5 13,0 - - - - 0,0
26.07.2017 06:00:00 14,0 12,5 - - - - 0,0
26.07.2017 05:00:00 13,8 12,2 - - - - 0,0
26.07.2017 04:00:00 14,6 12,5 - - - - 0,0
26.07.2017 03:00:00 15,7 13,1 - - - - 0,0
26.07.2017 02:00:00 15,3 13,2 - - - - 0,0
26.07.2017 01:00:00 15,1 13,3 - - - - 0,0
26.07.2017 00:00:00 15,7 13,8 - - - - 0,0
25.07.2017 23:00:00 15,2 13,5 - - - - 0,0
25.07.2017 22:00:00 14,9 12,6 - - - - 0,0
25.07.2017 21:00:00 16,9 13,6 - - - - 0,0
25.07.2017 20:00:00 18,2 13,5 - - - - 0,0
25.07.2017 19:00:00 18,7 13,5 - - - - 0,0
25.07.2017 18:00:00 19,4 13,5 - - - - 0,0
25.07.2017 17:00:00 18,9 12,9 - - - - 0,0
25.07.2017 16:00:00 16,9 13,4 - - - - 0,0
25.07.2017 15:00:00 16,9 14,1 - - - - 0,0
25.07.2017 14:00:00 17,0 13,2 - - - - 0,0
25.07.2017 13:00:00 16,2 13,1 - - - - 0,0
25.07.2017 12:00:00 15,6 13,1 - - - - 0,0
25.07.2017 11:00:00 14,9 12,1 - - - - 0,0
25.07.2017 10:00:00 14,6 12,1 58 31 N 29 0,0
25.07.2017 09:00:00 13,5 11,2 - - - - 0,0
25.07.2017 08:00:00 12,9 11,1 - - - - 0,0
25.07.2017 07:00:00 12,3 10,7 - - - - 0,0
25.07.2017 06:00:00 11,7 10,1 - - - - 0,0
25.07.2017 05:00:00 11,7 10,4 - - - - 0,0
25.07.2017 04:00:00 10,3 9,3 - - - - 0,0
25.07.2017 03:00:00 11,2 9,7 - - - - 0,0
25.07.2017 02:00:00 11,7 9,9 - - - - 0,0
25.07.2017 01:00:00 12,8 10,5 - - - - 0,0
25.07.2017 00:00:00 13,4 10,8 - - - - 0,0
24.07.2017 23:00:00 14,3 11,0 - - - - 0,0
24.07.2017 22:00:00 15,4 11,6 - - - - 0,0
24.07.2017 21:00:00 16,6 12,2 - - - - 0,0
24.07.2017 20:00:00 17,8 13,8 - - - - 0,0
24.07.2017 19:00:00 18,9 13,9 - - - - 0,0
24.07.2017 18:00:00 19,7 13,0 - - - - 0,0
24.07.2017 17:00:00 20,0 12,2 - - - - 0,0
24.07.2017 16:00:00 19,6 12,3 - - - - 0,0
24.07.2017 15:00:00 18,6 12,0 - - - - 0,0
24.07.2017 14:00:00 18,5 12,4 - - - - 0,0
24.07.2017 13:00:00 17,4 12,5 - - - - 0,0
24.07.2017 12:00:00 15,9 11,4 - - - - 0,0
24.07.2017 11:00:00 15,9 11,5 - - - - 0,0
24.07.2017 10:00:00 15,4 11,5 61 33 N 3,1 0,0
24.07.2017 09:00:00 14,9 11,6 - - - - 0,0
24.07.2017 08:00:00 14,4 11,6 - - - - 0,0
24.07.2017 07:00:00 14,4 11,4 - - - - 0,0
24.07.2017 06:00:00 14,3 11,2 - - - - 0,0
24.07.2017 05:00:00 14,6 11,3 - - - - 0,0
24.07.2017 04:00:00 14,7 11,5 - - - - 0,0
24.07.2017 03:00:00 15,1 11,6 - - - - 0,0
24.07.2017 02:00:00 15,1 11,6 - - - - 0,0
24.07.2017 01:00:00 15,1 11,7 - - - - 0,0
24.07.2017 00:00:00 15,2 11,9 - - - - 0,0
23.07.2017 23:00:00 15,2 13,2 - - - - 0,0
23.07.2017 22:00:00 15,1 13,7 - - - - 0,2
23.07.2017 21:00:00 15,1 13,9 - - - - 0,0
23.07.2017 20:00:00 14,7 13,6 - - - - 2,0
23.07.2017 19:00:00 15,3 14,1 - - - - 2,2
23.07.2017 18:00:00 14,5 13,1 - - - - 1,4
23.07.2017 17:00:00 15,0 12,5 - - - - 0,2
23.07.2017 16:00:00 17,0 13,1 - - - - 0,0
23.07.2017 15:00:00 16,5 13,6 - - - - 2,2
23.07.2017 14:00:00 17,8 11,2 - - - - 0,0
23.07.2017 13:00:00 18,4 11,3 - - - - 0,0
23.07.2017 12:00:00 17,7 11,9 - - - - 0,0

tt = temperature
td = dewpoint
ff = wind speed
dd = wind direction
vv = visibility
rr = precipitation

Next stations